When you browse on this site, cookies collect data to enhance your experience and personalize the content and advertising you see.
Visit our Privacy Policy to learn more. By continuing to use the site, you agree to this use of cookies and data.
  • In Schweiz
  • Länderverzeichnis
  • Für 7 Tage
  • Wassertemperatur
  • Wetterkarte
  • Widgets
  • user-avatar
    Anmelden

    Stündliche Wetter Bogolyubovka

    Heute, 29 Mai, Freitag

    Zeit Temperatur Niederschläge Wind Luftdruck Luftfeuchtigkeit
    00:00 +13°C° 0 mm 4 m/S 747 mmHg 89%
    01:00 +13°C° 0 mm 5 m/S 747 mmHg 90%
    02:00 +13°C° 0 mm 5 m/S 746 mmHg 91%
    03:00 +14°C° 0 mm 4 m/S 745 mmHg 90%
    04:00 +14°C° 0.4 mm 4 m/S 745 mmHg 91%
    05:00 +15°C° 0.4 mm 5 m/S 745 mmHg 93%
    06:00 +15°C° 0.4 mm 5 m/S 745 mmHg 95%
    07:00 +16°C° 0.3 mm 5 m/S 745 mmHg 93%
    08:00 +17°C° 0.3 mm 5 m/S 745 mmHg 91%
    09:00 +19°C° 0 mm 5 m/S 745 mmHg 89%
    10:00 +20°C° 0.1 mm 5 m/S 744 mmHg 86%
    11:00 +21°C° 0.1 mm 6 m/S 744 mmHg 83%
    12:00 +22°C° 0.1 mm 6 m/S 744 mmHg 80%
    13:00 +23°C° 0.3 mm 6 m/S 744 mmHg 77%
    14:00 +24°C° 0.3 mm 6 m/S 743 mmHg 74%
    15:00 +24°C° 0.3 mm 7 m/S 743 mmHg 71%
    16:00 +24°C° 0.3 mm 6 m/S 743 mmHg 74%
    17:00 +25°C° 0.3 mm 5 m/S 742 mmHg 76%
    18:00 +23°C° 0.3 mm 5 m/S 742 mmHg 79%
    19:00 +22°C° 0.1 mm 4 m/S 742 mmHg 82%
    20:00 +20°C° 0.1 mm 4 m/S 742 mmHg 85%
    21:00 +19°C° 0.1 mm 4 m/S 742 mmHg 89%
    22:00 +18°C° 0 mm 4 m/S 742 mmHg 90%
    23:00 +18°C° 0 mm 4 m/S 741 mmHg 91%

    Morgen, 30 Mai, Samstag

    Zeit Temperatur Niederschläge Wind Luftdruck Luftfeuchtigkeit
    00:00 +17°C° 0 mm 4 m/S 741 mmHg 92%
    01:00 +17°C° 0 mm 4 m/S 741 mmHg 93%
    02:00 +15°C° 0 mm 4 m/S 741 mmHg 94%
    03:00 +15°C° 0 mm 4 m/S 741 mmHg 95%
    04:00 +15°C° 0 mm 4 m/S 740 mmHg 94%
    05:00 +15°C° 0 mm 4 m/S 740 mmHg 93%
    06:00 +15°C° 0 mm 4 m/S 740 mmHg 91%
    07:00 +17°C° 0 mm 4 m/S 739 mmHg 88%
    08:00 +17°C° 0 mm 5 m/S 739 mmHg 85%
    09:00 +20°C° 0 mm 5 m/S 739 mmHg 82%
    10:00 +21°C° 0 mm 6 m/S 738 mmHg 79%
    11:00 +22°C° 0 mm 6 m/S 738 mmHg 75%
    12:00 +23°C° 0 mm 7 m/S 738 mmHg 72%
    13:00 +22°C° 0.1 mm 7 m/S 737 mmHg 76%
    14:00 +21°C° 0.1 mm 6 m/S 737 mmHg 79%
    15:00 +21°C° 0.1 mm 5 m/S 737 mmHg 83%
    16:00 +20°C° 0.8 mm 5 m/S 737 mmHg 86%
    17:00 +19°C° 0.8 mm 4 m/S 737 mmHg 90%
    18:00 +18°C° 0.8 mm 4 m/S 737 mmHg 93%
    19:00 +17°C° 0.4 mm 4 m/S 737 mmHg 94%
    20:00 +15°C° 0.4 mm 4 m/S 737 mmHg 94%
    21:00 +15°C° 0.4 mm 4 m/S 737 mmHg 95%
    22:00 +14°C° 0.1 mm 3 m/S 737 mmHg 95%
    23:00 +14°C° 0.1 mm 3 m/S 737 mmHg 96%

    übermorgen, 31 Mai, Sonntag

    Zeit Temperatur Niederschläge Wind Luftdruck Luftfeuchtigkeit
    00:00 +13°C° 0.1 mm 3 m/S 737 mmHg 96%
    01:00 +13°C° 0 mm 3 m/S 737 mmHg 96%
    02:00 +12°C° 0 mm 3 m/S 737 mmHg 97%
    03:00 +11°C° 0 mm 3 m/S 737 mmHg 97%
    04:00 +12°C° 0 mm 3 m/S 737 mmHg 96%
    05:00 +12°C° 0 mm 3 m/S 737 mmHg 95%
    06:00 +12°C° 0 mm 4 m/S 737 mmHg 95%
    07:00 +13°C° 0 mm 4 m/S 737 mmHg 92%
    08:00 +14°C° 0 mm 4 m/S 737 mmHg 90%
    09:00 +15°C° 0 mm 5 m/S 737 mmHg 88%
    10:00 +15°C° 0.1 mm 5 m/S 737 mmHg 86%
    11:00 +15°C° 0.1 mm 5 m/S 737 mmHg 84%
    12:00 +15°C° 0.1 mm 5 m/S 737 mmHg 83%
    13:00 +16°C° 0.4 mm 6 m/S 737 mmHg 83%
    14:00 +16°C° 0.4 mm 6 m/S 737 mmHg 82%
    15:00 +16°C° 0.4 mm 7 m/S 738 mmHg 82%
    16:00 +15°C° 0.4 mm 6 m/S 738 mmHg 83%
    17:00 +15°C° 0.4 mm 5 m/S 738 mmHg 85%
    18:00 +14°C° 0.4 mm 5 m/S 738 mmHg 86%
    19:00 +13°C° 1 mm 5 m/S 738 mmHg 88%
    20:00 +12°C° 1 mm 5 m/S 738 mmHg 91%
    21:00 +10°C° 1 mm 5 m/S 738 mmHg 94%
    22:00 +9°C° 1.2 mm 5 m/S 738 mmHg 94%
    23:00 +8°C° 1.2 mm 5 m/S 738 mmHg 94%

    1 Juni, Montag

    Zeit Temperatur Niederschläge Wind Luftdruck Luftfeuchtigkeit
    00:00 +8°C° 1.2 mm 5 m/S 738 mmHg 95%
    01:00 +8°C° 1.4 mm 5 m/S 738 mmHg 95%
    02:00 +8°C° 1.4 mm 5 m/S 738 mmHg 95%
    03:00 +8°C° 1.4 mm 5 m/S 738 mmHg 95%
    04:00 +8°C° 1 mm 5 m/S 738 mmHg 95%
    05:00 +7°C° 1 mm 5 m/S 738 mmHg 95%
    06:00 +7°C° 1 mm 5 m/S 738 mmHg 95%
    07:00 +7°C° 0.3 mm 5 m/S 739 mmHg 94%
    08:00 +7°C° 0.3 mm 5 m/S 739 mmHg 94%
    09:00 +7°C° 0.3 mm 5 m/S 739 mmHg 93%
    10:00 +7°C° 0.2 mm 5 m/S 740 mmHg 93%
    11:00 +7°C° 0.2 mm 5 m/S 740 mmHg 92%
    12:00 +7°C° 0.2 mm 5 m/S 740 mmHg 92%
    13:00 +7°C° 0.1 mm 5 m/S 740 mmHg 92%
    14:00 +7°C° 0.1 mm 5 m/S 740 mmHg 92%
    15:00 +7°C° 0.1 mm 4 m/S 740 mmHg 92%
    16:00 +7°C° 0.1 mm 4 m/S 740 mmHg 93%
    17:00 +7°C° 0.1 mm 4 m/S 740 mmHg 93%
    18:00 +7°C° 0.1 mm 4 m/S 741 mmHg 93%
    19:00 +7°C° 0.1 mm 4 m/S 741 mmHg 94%
    20:00 +7°C° 0.1 mm 4 m/S 741 mmHg 94%
    21:00 +7°C° 0.1 mm 4 m/S 741 mmHg 95%
    22:00 +7°C° 0 mm 4 m/S 741 mmHg 95%
    23:00 +7°C° 0 mm 4 m/S 741 mmHg 95%

    2 Juni, Dienstag

    Zeit Temperatur Niederschläge Wind Luftdruck Luftfeuchtigkeit
    00:00 +7°C° 0 mm 4 m/S 741 mmHg 95%
    01:00 +8°C° 0 mm 3 m/S 741 mmHg 95%
    02:00 +7°C° 0 mm 3 m/S 740 mmHg 95%
    03:00 +7°C° 0 mm 3 m/S 740 mmHg 96%
    04:00 +7°C° 0 mm 3 m/S 740 mmHg 94%
    05:00 +8°C° 0 mm 3 m/S 740 mmHg 93%
    06:00 +8°C° 0 mm 3 m/S 740 mmHg 92%
    07:00 +8°C° 0 mm 3 m/S 740 mmHg 90%
    08:00 +9°C° 0 mm 3 m/S 740 mmHg 88%
    09:00 +9°C° 0 mm 2 m/S 740 mmHg 86%
    10:00 +10°C° 0.2 mm 2 m/S 740 mmHg 83%
    11:00 +12°C° 0.2 mm 2 m/S 741 mmHg 80%
    12:00 +13°C° 0.2 mm 2 m/S 741 mmHg 78%
    13:00 +12°C° 0.2 mm 3 m/S 740 mmHg 78%
    14:00 +12°C° 0.2 mm 3 m/S 740 mmHg 78%
    15:00 +12°C° 0.2 mm 3 m/S 740 mmHg 79%
    16:00 +12°C° 0.1 mm 3 m/S 740 mmHg 80%
    17:00 +12°C° 0.1 mm 3 m/S 740 mmHg 81%
    18:00 +12°C° 0.1 mm 3 m/S 740 mmHg 82%
    19:00 +11°C° 0 mm 3 m/S 740 mmHg 86%
    20:00 +10°C° 0 mm 2 m/S 740 mmHg 90%
    21:00 +9°C° 0 mm 2 m/S 740 mmHg 94%
    22:00 +8°C° 0 mm 2 m/S 740 mmHg 94%
    23:00 +8°C° 0 mm 2 m/S 740 mmHg 95%

    3 Juni, Mittwoch

    Zeit Temperatur Niederschläge Wind Luftdruck Luftfeuchtigkeit
    00:00 +7°C° 0 mm 2 m/S 740 mmHg 96%
    01:00 +7°C° 0 mm 2 m/S 740 mmHg 96%
    02:00 +7°C° 0 mm 2 m/S 740 mmHg 96%
    03:00 +6°C° 0 mm 2 m/S 740 mmHg 96%
    04:00 +7°C° 0 mm 2 m/S 740 mmHg 96%
    05:00 +7°C° 0 mm 2 m/S 740 mmHg 95%
    06:00 +8°C° 0 mm 2 m/S 740 mmHg 94%
    07:00 +9°C° 0.1 mm 2 m/S 740 mmHg 92%
    08:00 +10°C° 0.1 mm 2 m/S 740 mmHg 89%
    09:00 +12°C° 0.1 mm 1 m/S 740 mmHg 87%
    10:00 +12°C° 0.3 mm 2 m/S 740 mmHg 87%
    11:00 +12°C° 0.3 mm 2 m/S 740 mmHg 87%
    12:00 +12°C° 0.3 mm 2 m/S 740 mmHg 87%
    13:00 +12°C° 0 mm 2 m/S 740 mmHg 87%
    14:00 +12°C° 0 mm 2 m/S 740 mmHg 87%
    15:00 +12°C° 0 mm 2 m/S 740 mmHg 87%
    16:00 +13°C° 0 mm 2 m/S 740 mmHg 85%
    17:00 +14°C° 0 mm 2 m/S 740 mmHg 82%
    18:00 +14°C° 0 mm 2 m/S 740 mmHg 80%
    19:00 +13°C° 0 mm 2 m/S 739 mmHg 83%
    20:00 +13°C° 0 mm 2 m/S 739 mmHg 87%
    21:00 +12°C° 0 mm 2 m/S 739 mmHg 90%
    22:00 +10°C° 0 mm 2 m/S 739 mmHg 91%
    23:00 +10°C° 0 mm 2 m/S 739 mmHg 93%
    Mehr zeigen